Crane Lake, MN

5:16 PM CST on December 06, 2016 (GMT -0600)
Crane Lake

Weather History for KCDD - January, 2014

Change the Weather History Date:

Friday, January 10, 2014

  Actual Average Record
Temperature  
Mean Temperature 18 °F -  
Max Temperature 23 °F 14 °F 48 °F (2013)
Min Temperature 12 °F 0 °F -25 °F (2016)
Degree Days  
Heating Degree Days 48    
Moisture  
Dew Point 18 °F    
Average Humidity 92    
Maximum Humidity 100    
Minimum Humidity 79    
Precipitation  
Precipitation 0.00 in - - ()
Sea Level Pressure  
Sea Level Pressure 29.61 in    
Wind  
Wind Speed 5 mph (SSE)    
Max Wind Speed 10 mph    
Max Gust Speed 18 mph    
Visibility 4 miles    
Events      
Averages and records for this station are not official NWS values.
T = Trace of Precipitation, MM = Missing Value Source: NWS Daily Summary

Daily Weather History Graph

Daily Weather History Graph

Search for Another Location

Airport or City:

Trip Planner

Search our weather history database for the weather conditions in past years. The results will help you decide how hot, cold, wet, or windy it might be!

Date:

Astronomy

Jan. 10, 2014 Rise Set
Actual Time 7:58 AM CST 4:36 PM CST
Civil Twilight 7:22 AM CST 5:12 PM CST
Nautical Twilight 6:43 AM CST 5:51 PM CST
Astronomical Twilight 6:06 AM CST 6:29 PM CST
Moon 12:47 PM CST (1/10) 2:59 AM CST (1/10)
Length of Visible Light 9h 49m
Length of Day
8h 38m
Waxing Gibbous, 75% of the Moon is Illuminated
Jan 10
Waxing Gibbous
Jan 15
Full
Jan 23
Last Quarter
Jan 30
New
Feb 6
First Quarter

Hourly Weather History & Observations

Time (CST) Temp. Windchill Dew Point Humidity Pressure Visibility Wind Dir Wind Speed Gust Speed Precip Events Conditions
12:03 AM 12.2 °F 2.9 °F 10.4 °F 92% 29.76 in 10.0 mi South 5.8 mph - N/A   Overcast
12:23 AM 14.0 °F 8.2 °F 10.4 °F 86% 29.76 in 10.0 mi SSE 3.5 mph - N/A   Overcast
12:43 AM 14.0 °F 6.5 °F 10.4 °F 86% 29.76 in 10.0 mi South 4.6 mph - N/A   Overcast
1:03 AM 14.0 °F 6.5 °F 10.4 °F 86% 29.76 in 10.0 mi South 4.6 mph - N/A   Overcast
1:23 AM 14.0 °F 6.5 °F 10.4 °F 86% 29.75 in 10.0 mi SSE 4.6 mph - N/A   Overcast
1:43 AM 15.8 °F 8.6 °F 10.4 °F 79% 29.75 in 10.0 mi SSE 4.6 mph - N/A   Overcast
2:04 AM 15.8 °F 8.6 °F 12.2 °F 86% 29.75 in 7.0 mi South 4.6 mph - N/A   Overcast
2:23 AM 15.8 °F 7.2 °F 12.2 °F 86% 29.75 in 7.0 mi SSE 5.8 mph - N/A   Overcast
2:43 AM 15.8 °F 7.2 °F 12.2 °F 86% 29.74 in 7.0 mi SSE 5.8 mph - N/A   Overcast
3:03 AM 15.8 °F 5.1 °F 12.2 °F 86% 29.74 in 5.0 mi South 8.1 mph - N/A   Overcast
3:23 AM 15.8 °F 6.1 °F 14.0 °F 93% 29.74 in 5.0 mi South 6.9 mph - N/A   Overcast
3:43 AM 15.8 °F 10.2 °F 14.0 °F 93% 29.73 in 5.0 mi South 3.5 mph - N/A   Overcast
4:04 AM 17.6 °F 8.2 °F 15.8 °F 93% 29.72 in 4.0 mi SSE 6.9 mph - N/A   Overcast
4:23 AM 17.6 °F 9.3 °F 15.8 °F 93% 29.71 in 4.0 mi SSE 5.8 mph - N/A   Overcast
4:44 AM 17.6 °F 10.7 °F 15.8 °F 93% 29.71 in 4.0 mi South 4.6 mph - N/A   Overcast
5:03 AM 17.6 °F 9.3 °F 15.8 °F 93% 29.71 in 4.0 mi South 5.8 mph - N/A   Overcast
5:24 AM 17.6 °F 8.2 °F 15.8 °F 93% 29.70 in 3.0 mi South 6.9 mph - N/A   Overcast
5:43 AM 17.6 °F 9.3 °F 15.8 °F 93% 29.69 in 3.0 mi South 5.8 mph - N/A   Overcast
6:03 AM 17.6 °F 12.3 °F 15.8 °F 93% 29.69 in 3.0 mi SSE 3.5 mph - N/A   Overcast
6:23 AM 17.6 °F 8.2 °F 15.8 °F 93% 29.68 in 3.0 mi South 6.9 mph - N/A   Overcast
6:43 AM 17.6 °F 9.3 °F 15.8 °F 93% 29.68 in 3.0 mi SSE 5.8 mph - N/A   Overcast
7:03 AM 17.6 °F 5.7 °F 15.8 °F 93% 29.67 in 3.0 mi South 10.4 mph - N/A   Overcast
7:24 AM 17.6 °F 7.3 °F 15.8 °F 93% 29.66 in 3.0 mi South 8.1 mph - N/A   Overcast
7:43 AM 17.6 °F 5.7 °F 17.6 °F 100% 29.66 in 3.0 mi South 10.4 mph 18.4 mph N/A   Overcast
8:03 AM 17.6 °F 5.7 °F 17.6 °F 100% 29.67 in 3.0 mi South 10.4 mph - N/A   Overcast
8:24 AM 17.6 °F 8.2 °F 17.6 °F 100% 29.68 in 3.0 mi South 6.9 mph - N/A   Overcast
8:43 AM 17.6 °F 9.3 °F 17.6 °F 100% 29.68 in 3.0 mi South 5.8 mph - N/A   Overcast
9:03 AM 19.4 °F 8.6 °F 17.6 °F 93% 29.68 in 4.0 mi South 9.2 mph 16.1 mph N/A   Overcast
9:23 AM 19.4 °F 8.6 °F 17.6 °F 93% 29.67 in 4.0 mi South 9.2 mph 16.1 mph N/A   Overcast
9:43 AM 19.4 °F 10.4 °F 17.6 °F 93% 29.67 in 5.0 mi SSE 6.9 mph - N/A   Overcast
10:03 AM 19.4 °F 11.5 °F 17.6 °F 93% 29.67 in 5.0 mi South 5.8 mph 16.1 mph N/A   Overcast
10:23 AM 19.4 °F 9.5 °F 17.6 °F 93% 29.67 in 5.0 mi SSE 8.1 mph - N/A   Overcast
10:43 AM 19.4 °F 11.5 °F 17.6 °F 93% 29.66 in 5.0 mi South 5.8 mph - N/A   Overcast
11:03 AM 19.4 °F 12.8 °F 17.6 °F 93% 29.65 in 5.0 mi SSE 4.6 mph - N/A   Overcast
11:23 AM 19.4 °F 12.8 °F 17.6 °F 93% 29.63 in 5.0 mi South 4.6 mph - N/A   Overcast
11:43 AM 19.4 °F 11.5 °F 17.6 °F 93% 29.62 in 5.0 mi SSE 5.8 mph - N/A   Overcast
12:03 PM 19.4 °F 11.5 °F 17.6 °F 93% 29.61 in 5.0 mi SSE 5.8 mph - N/A   Overcast
12:24 PM 19.4 °F 12.8 °F 17.6 °F 93% 29.61 in 5.0 mi South 4.6 mph - N/A   Overcast
12:43 PM 21.2 °F 13.6 °F 17.6 °F 86% 29.59 in 5.0 mi SSE 5.8 mph - N/A   Overcast
1:03 PM 21.2 °F 13.6 °F 17.6 °F 86% 29.58 in 5.0 mi SSE 5.8 mph - N/A   Overcast
1:23 PM 21.2 °F 12.6 °F 19.4 °F 93% 29.58 in 5.0 mi SSE 6.9 mph - N/A   Overcast
1:43 PM 21.2 °F 13.6 °F 19.4 °F 93% 29.58 in 5.0 mi SSE 5.8 mph - N/A   Overcast
2:03 PM 21.2 °F 13.6 °F 19.4 °F 93% 29.57 in 4.0 mi SSE 5.8 mph - N/A   Overcast
2:23 PM 21.2 °F 14.9 °F 19.4 °F 93% 29.56 in 4.0 mi SSE 4.6 mph - N/A   Overcast
2:43 PM 21.2 °F 14.9 °F 19.4 °F 93% 29.55 in 4.0 mi SSE 4.6 mph - N/A   Overcast
3:04 PM 21.2 °F - 19.4 °F 93% 29.55 in 4.0 mi Calm Calm - N/A   Overcast
3:23 PM 21.2 °F 16.4 °F 19.4 °F 93% 29.54 in 4.0 mi SSE 3.5 mph - N/A   Overcast
3:44 PM 21.2 °F 13.6 °F 19.4 °F 93% 29.54 in 4.0 mi SSE 5.8 mph - N/A   Overcast
4:03 PM 21.2 °F 13.6 °F 19.4 °F 93% 29.54 in 4.0 mi South 5.8 mph - N/A   Overcast
4:23 PM 21.2 °F 16.4 °F 19.4 °F 93% 29.54 in 4.0 mi South 3.5 mph - N/A   Overcast
4:44 PM 21.2 °F 16.4 °F 21.2 °F 100% 29.53 in 4.0 mi SSE 3.5 mph - N/A   Overcast
5:03 PM 21.2 °F - 21.2 °F 100% 29.52 in 3.0 mi Calm Calm - N/A   Overcast
5:23 PM 23.0 °F 18.4 °F 21.2 °F 93% 29.52 in 3.0 mi SSE 3.5 mph - N/A   Overcast
5:43 PM 23.0 °F 18.4 °F 21.2 °F 93% 29.51 in 3.0 mi SSE 3.5 mph - N/A   Overcast
6:03 PM 23.0 °F 17.0 °F 21.2 °F 93% 29.52 in 2.5 mi SSE 4.6 mph - N/A   Overcast
6:23 PM 23.0 °F 15.8 °F 21.2 °F 93% 29.51 in 2.5 mi SSE 5.8 mph - N/A   Overcast
6:43 PM 23.0 °F 13.9 °F 21.2 °F 93% 29.51 in 2.5 mi South 8.1 mph - N/A   Overcast
7:03 PM 23.0 °F 17.0 °F 21.2 °F 93% 29.50 in 2.5 mi SSE 4.6 mph - N/A   Overcast
7:23 PM 23.0 °F 17.0 °F 21.2 °F 93% 29.48 in 2.5 mi SSE 4.6 mph - N/A   Overcast
7:43 PM 23.0 °F - 21.2 °F 93% 29.48 in 3.0 mi Calm Calm - N/A   Overcast
8:03 PM 23.0 °F - 21.2 °F 93% 29.48 in 3.0 mi Calm Calm - N/A   Overcast
8:23 PM 23.0 °F 18.4 °F 21.2 °F 93% 29.47 in 4.0 mi SSE 3.5 mph - N/A   Overcast
8:44 PM 23.0 °F 18.4 °F 21.2 °F 93% 29.47 in 4.0 mi South 3.5 mph - N/A   Overcast
9:03 PM 23.0 °F 18.4 °F 21.2 °F 93% 29.47 in 4.0 mi SSE 3.5 mph - N/A   Overcast
9:23 PM 23.0 °F 18.4 °F 21.2 °F 93% 29.47 in 3.0 mi SSE 3.5 mph - N/A   Overcast
9:43 PM 23.0 °F 18.4 °F 21.2 °F 93% 29.47 in 2.5 mi South 3.5 mph - N/A   Overcast
10:03 PM 23.0 °F - 21.2 °F 93% 29.47 in 1.8 mi Calm Calm - N/A   Overcast
10:23 PM 23.0 °F - 21.2 °F 93% 29.47 in 2.0 mi Calm Calm - N/A   Overcast
10:43 PM 23.0 °F - 21.2 °F 93% 29.46 in 1.5 mi Calm Calm - N/A   Overcast
11:03 PM 23.0 °F - 21.2 °F 93% 29.46 in 1.8 mi Calm Calm - N/A   Overcast
11:23 PM 23.0 °F - 21.2 °F 93% 29.44 in 1.8 mi Calm Calm - N/A   Overcast
11:43 PM 23.0 °F - 21.2 °F 93% 29.44 in 2.0 mi Calm Calm - N/A   Overcast